QPF
0.09 0.05 0.02 0.01 0.00 0.00 0.00 0.00 0.00 0.00 0.00 0.00 0.00 0.00 0.00 0.00 0.00 0.00 0.00 0.01 0.01 0.01 0.02 0.05 0.05 0.03 0.04 0.05 0.07 0.11 0.13 0.13 0.09 0.07 0.06 0.04 0.06 0.14 0.12 0.05 0.02 0.01 0.00
0.06 0.03 0.02 0.01 0.00 0.00 0.00 0.00 0.00 0.00 0.00 0.00 0.00 0.00 0.00 0.00 0.00 0.00 0.00 0.00 0.00 0.00 0.01 0.02 0.02 0.01 0.01 0.02 0.03 0.06 0.07 0.08 0.08 0.06 0.04 0.02 0.04 0.11 0.15 0.09 0.04 0.02 0.01
0.06 0.06 0.05 0.02 0.01 0.00 0.00 0.00 0.00 0.00 0.00 0.00 0.00 0.00 0.00 0.00 0.00 0.00 0.00 0.00 0.00 0.00 0.00 0.00 0.00 0.00 0.00 0.00 0.00 0.01 0.01 0.02 0.03 0.03 0.02 0.01 0.01 0.03 0.10 0.11 0.07 0.05 0.02
0.05 0.05 0.05 0.04 0.01 0.00 0.00 0.00 0.00 0.00 0.00 0.00 0.00 0.00 0.00 0.00 0.00 0.00 0.00 0.00 0.00 0.00 0.00 0.00 0.00 0.00 0.00 0.00 0.00 0.00 0.00 0.01 0.01 0.02 0.01 0.01 0.02 0.04 0.09 0.15 0.13 0.11 0.04
0.03 0.04 0.07 0.08 0.03 0.00 0.00 0.00 0.00 0.00 0.00 0.00 0.00 0.00 0.00 0.00 0.00 0.00 0.00 0.00 0.00 0.00 0.00 0.00 0.00 0.00 0.00 0.00 0.00 0.00 0.00 0.00 0.00 0.01 0.01 0.02 0.03 0.06 0.08 0.12 0.17 0.17 0.09
0.02 0.03 0.06 0.08 0.05 0.02 0.01 0.00 0.00 0.00 0.00 0.00 0.00 0.00 0.00 0.00 0.00 0.00 0.00 0.00 0.00 0.00 0.00 0.00 0.00 0.00 0.00 0.00 0.00 0.00 0.00 0.00 0.00 0.00 0.00 0.01 0.03 0.06 0.07 0.12 0.20 0.18 0.12
0.06 0.04 0.05 0.07 0.07 0.04 0.02 0.01 0.00 0.00 0.00 0.00 0.00 0.00 0.00 0.00 0.00 0.00 0.00 0.00 0.00 0.00 0.00 0.00 0.00 0.00 0.00 0.00 0.00 0.00 0.00 0.00 0.00 0.00 0.00 0.00 0.01 0.04 0.08 0.16 0.22 0.28 0.25
0.06 0.03 0.03 0.04 0.06 0.07 0.06 0.04 0.01 0.00 0.00 0.00 0.00 0.00 0.00 0.00 0.00 0.00 0.00 0.00 0.00 0.00 0.00 0.00 0.00 0.00 0.00 0.00 0.00 0.00 0.00 0.00 0.00 0.00 0.00 0.00 0.00 0.01 0.05 0.08 0.12 0.18 0.26
0.06 0.03 0.01 0.01 0.03 0.06 0.07 0.05 0.03 0.01 0.00 0.00 0.00 0.00 0.00 0.00 0.00 0.00 0.00 0.00 0.00 0.00 0.00 0.00 0.00 0.00 0.00 0.00 0.00 0.00 0.00 0.00 0.00 0.00 0.00 0.00 0.00 0.00 0.00 0.01 0.02 0.03 0.05
0.06 0.03 0.02 0.01 0.02 0.02 0.02 0.02 0.01 0.01 0.00 0.00 0.00 0.00 0.00 0.00 0.00 0.00 0.00 0.00 0.00 0.00 0.00 0.00 0.00 0.00 0.00 0.00 0.00 0.00 0.00 0.00 0.00 0.00 0.00 0.00 0.00 0.00 0.00 0.00 0.00 0.00 0.00
0.03 0.02 0.01 0.01 0.02 0.01 0.00 0.00 0.00 0.00 0.00 0.00 0.00 0.00 0.00 0.00 0.00 0.00 0.00 0.00 0.00 0.00 0.00 0.00 0.00 0.00 0.00 0.00 0.00 0.00 0.00 0.00 0.00 0.00 0.00 0.00 0.00 0.00 0.00 0.00 0.00 0.00 0.00
0.00 0.00 0.00 0.00 0.00 0.00 0.00 0.00 0.00 0.00 0.00 0.00 0.00 0.00 0.00 0.00 0.00 0.00 0.00 0.00 0.00 0.00 0.00 0.00 0.00 0.00 0.00 0.00 0.00 0.00 0.00 0.00 0.00 0.00 0.00 0.00 0.00 0.00 0.00 0.00 0.00 0.01 0.01
0.00 0.00 0.00 0.00 0.00 0.00 0.00 0.00 0.01 0.02 0.01 0.00 0.00 0.00 0.00 0.00 0.00 0.00 0.00 0.00 0.00 0.00 0.00 0.00 0.00 0.00 0.00 0.00 0.00 0.00 0.00 0.00 0.00 0.00 0.00 0.00 0.00 0.00 0.00 0.00 0.00 0.00 0.01
0.00 0.00 0.00 0.00 0.00 0.00 0.00 0.00 0.01 0.03 0.03 0.01 0.00 0.00 0.00 0.00 0.00 0.00 0.00 0.00 0.00 0.00 0.00 0.00 0.00 0.00 0.00 0.00 0.00 0.00 0.00 0.00 0.00 0.00 0.00 0.00 0.00 0.00 0.00 0.00 0.00 0.00 0.00
0.00 0.00 0.00 0.00 0.00 0.00 0.00 0.00 0.01 0.02 0.02 0.01 0.00 0.00 0.00 0.00 0.00 0.00 0.00 0.00 0.00 0.00 0.00 0.00 0.00 0.00 0.00 0.00 0.00 0.00 0.00 0.00 0.00 0.00 0.00 0.00 0.00 0.00 0.00 0.00 0.00 0.00 0.00
0.00 0.00 0.00 0.00 0.00 0.00 0.00 0.00 0.00 0.00 0.00 0.00 0.00 0.00 0.00 0.00 0.00 0.00 0.00 0.00 0.00 0.00 0.00 0.00 0.00 0.00 0.00 0.00 0.00 0.00 0.00 0.00 0.00 0.00 0.00 0.00 0.00 0.00 0.00 0.00 0.00 0.00 0.00
0.00 0.00 0.00 0.00 0.00 0.00 0.00 0.00 0.00 0.00 0.00 0.00 0.00 0.00 0.00 0.00 0.00 0.00 0.00 0.00 0.00 0.00 0.00 0.00 0.00 0.00 0.00 0.00 0.00 0.00 0.00 0.00 0.00 0.00 0.00 0.00 0.00 0.00 0.00 0.00 0.00 0.00 0.00
0.00 0.00 0.00 0.00 0.00 0.00 0.00 0.00 0.00 0.00 0.00 0.00 0.00 0.00 0.00 0.00 0.00 0.00 0.00 0.00 0.00 0.00 0.00 0.00 0.00 0.00 0.00 0.00 0.00 0.00 0.00 0.00 0.00 0.00 0.00 0.00 0.00 0.00 0.00 0.00 0.00 0.00 0.00
0.00 0.00 0.00 0.00 0.00 0.00 0.00 0.00 0.00 0.00 0.00 0.00 0.00 0.00 0.00 0.00 0.00 0.00 0.00 0.00 0.00 0.00 0.00 0.00 0.00 0.00 0.00 0.00 0.00 0.00 0.00 0.00 0.00 0.00 0.00 0.00 0.00 0.00 0.00 0.00 0.00 0.00 0.00
0.00 0.00 0.00 0.00 0.00 0.00 0.00 0.00 0.00 0.00 0.00 0.00 0.00 0.00 0.00 0.00 0.00 0.00 0.00 0.00 0.00 0.00 0.00 0.00 0.00 0.00 0.00 0.00 0.00 0.00 0.00 0.00 0.00 0.00 0.00 0.00 0.00 0.00 0.00 0.00 0.00 0.00 0.00
0.00 0.00 0.00 0.00 0.00 0.00 0.00 0.00 0.00 0.00 0.00 0.00 0.00 0.00 0.00 0.00 0.00 0.00 0.00 0.00 0.00 0.00 0.00 0.00 0.00 0.00 0.00 0.00 0.00 0.00 0.00 0.00 0.00 0.00 0.00 0.00 0.00 0.00 0.00 0.00 0.00 0.00 0.00
0.00 0.00 0.00 0.00 0.00 0.00 0.00 0.00 0.00 0.00 0.00 0.00 0.00 0.00 0.00 0.00 0.00 0.00 0.00 0.00 0.00 0.00 0.00 0.00 0.00 0.00 0.00 0.00 0.00 0.00 0.00 0.00 0.00 0.00 0.00 0.00 0.00 0.00 0.00 0.00 0.00 0.00 0.00
0.00 0.00 0.00 0.00 0.00 0.00 0.00 0.00 0.00 0.00 0.00 0.00 0.00 0.00 0.00 0.00 0.00 0.00 0.00 0.00 0.00 0.00 0.00 0.00 0.00 0.00 0.00 0.00 0.00 0.00 0.00 0.00 0.00 0.00 0.00 0.00 0.00 0.00 0.00 0.00 0.00 0.00 0.00
0.00 0.00 0.00 0.00 0.00 0.00 0.00 0.00 0.00 0.00 0.00 0.00 0.00 0.00 0.00 0.00 0.00 0.00 0.00 0.00 0.00 0.00 0.00 0.00 0.00 0.00 0.00 0.00 0.00 0.00 0.00 0.00 0.00 0.00 0.00 0.00 0.00 0.00 0.00 0.00 0.00 0.00 0.00
0.00 0.00 0.00 0.00 0.00 0.00 0.00 0.00 0.00 0.00 0.00 0.00 0.00 0.00 0.00 0.00 0.00 0.00 0.00 0.00 0.00 0.00 0.00 0.00 0.00 0.00 0.00 0.00 0.00 0.00 0.00 0.00 0.00 0.00 0.00 0.00 0.00 0.00 0.00 0.00 0.00 0.00 0.00
0.00 0.00 0.00 0.00 0.00 0.00 0.00 0.00 0.00 0.00 0.00 0.00 0.00 0.00 0.00 0.00 0.00 0.00 0.00 0.00 0.00 0.00 0.00 0.00 0.00 0.00 0.00 0.00 0.00 0.00 0.00 0.00 0.00 0.00 0.00 0.00 0.00 0.00 0.00 0.00 0.00 0.00 0.00
MSLP
1010.38 1010.58 1010.86 1011.17 1011.48 1011.76 1011.99 1012.17 1012.31 1012.42 1012.52 1012.60 1012.67 1012.73 1012.76 1012.76 1012.72 1012.65 1012.56 1012.45 1012.35 1012.28 1012.22 1012.20 1012.19 1012.18 1012.14 1012.06 1011.92 1011.71 1011.43 1011.10 1010.74 1010.37 1010.02 1009.71 1009.46 1009.27 1009.14 1009.04 1008.96 1008.89 1008.81
1010.52 1010.67 1010.89 1011.16 1011.43 1011.68 1011.90 1012.09 1012.24 1012.38 1012.49 1012.59 1012.69 1012.76 1012.82 1012.84 1012.83 1012.79 1012.73 1012.65 1012.57 1012.49 1012.43 1012.38 1012.33 1012.28 1012.20 1012.08 1011.90 1011.67 1011.40 1011.08 1010.73 1010.39 1010.06 1009.76 1009.52 1009.31 1009.16 1009.04 1008.94 1008.85 1008.76
1010.68 1010.79 1010.96 1011.18 1011.41 1011.64 1011.85 1012.04 1012.21 1012.36 1012.50 1012.64 1012.76 1012.88 1012.96 1013.03 1013.06 1013.06 1013.03 1012.98 1012.92 1012.85 1012.77 1012.69 1012.61 1012.50 1012.37 1012.20 1011.99 1011.74 1011.46 1011.14 1010.82 1010.49 1010.18 1009.89 1009.64 1009.43 1009.25 1009.10 1008.97 1008.86 1008.77
1010.85 1010.93 1011.07 1011.25 1011.45 1011.66 1011.86 1012.05 1012.23 1012.41 1012.58 1012.75 1012.92 1013.07 1013.21 1013.32 1013.40 1013.45 1013.46 1013.44 1013.40 1013.33 1013.24 1013.13 1012.99 1012.84 1012.65 1012.44 1012.19 1011.91 1011.62 1011.31 1010.99 1010.68 1010.38 1010.10 1009.85 1009.62 1009.41 1009.23 1009.07 1008.94 1008.84
1011.00 1011.07 1011.20 1011.36 1011.54 1011.74 1011.93 1012.13 1012.33 1012.54 1012.74 1012.95 1013.16 1013.36 1013.54 1013.70 1013.83 1013.92 1013.97 1013.98 1013.95 1013.88 1013.77 1013.63 1013.45 1013.25 1013.01 1012.75 1012.47 1012.17 1011.86 1011.55 1011.24 1010.94 1010.65 1010.38 1010.11 1009.86 1009.63 1009.42 1009.24 1009.08 1008.97
1011.13 1011.22 1011.34 1011.50 1011.68 1011.87 1012.07 1012.29 1012.51 1012.74 1012.98 1013.23 1013.48 1013.72 1013.94 1014.14 1014.31 1014.43 1014.51 1014.54 1014.52 1014.44 1014.32 1014.15 1013.94 1013.69 1013.41 1013.10 1012.79 1012.46 1012.15 1011.83 1011.53 1011.24 1010.96 1010.68 1010.41 1010.15 1009.90 1009.66 1009.45 1009.27 1009.14
1011.24 1011.35 1011.49 1011.66 1011.85 1012.05 1012.27 1012.50 1012.75 1013.01 1013.29 1013.57 1013.85 1014.12 1014.37 1014.60 1014.79 1014.94 1015.03 1015.07 1015.05 1014.97 1014.83 1014.63 1014.39 1014.11 1013.79 1013.45 1013.11 1012.77 1012.44 1012.13 1011.83 1011.55 1011.27 1011.00 1010.73 1010.46 1010.19 1009.93 1009.70 1009.50 1009.35
1011.33 1011.47 1011.64 1011.82 1012.03 1012.26 1012.51 1012.77 1013.05 1013.34 1013.65 1013.95 1014.26 1014.54 1014.81 1015.05 1015.24 1015.39 1015.49 1015.53 1015.50 1015.41 1015.26 1015.05 1014.79 1014.48 1014.14 1013.78 1013.42 1013.07 1012.74 1012.42 1012.13 1011.85 1011.58 1011.32 1011.05 1010.77 1010.50 1010.23 1009.97 1009.75 1009.57
1011.42 1011.59 1011.78 1011.99 1012.23 1012.49 1012.77 1013.06 1013.37 1013.70 1014.03 1014.35 1014.67 1014.96 1015.22 1015.45 1015.64 1015.78 1015.87 1015.90 1015.87 1015.77 1015.62 1015.40 1015.13 1014.81 1014.46 1014.09 1013.73 1013.37 1013.03 1012.72 1012.43 1012.16 1011.90 1011.64 1011.38 1011.11 1010.83 1010.55 1010.28 1010.03 1009.82
1011.51 1011.71 1011.92 1012.16 1012.43 1012.72 1013.03 1013.36 1013.70 1014.05 1014.40 1014.74 1015.05 1015.34 1015.59 1015.80 1015.97 1016.09 1016.17 1016.19 1016.15 1016.06 1015.91 1015.69 1015.43 1015.12 1014.77 1014.41 1014.04 1013.69 1013.36 1013.05 1012.77 1012.50 1012.25 1012.00 1011.74 1011.47 1011.19 1010.90 1010.61 1010.34 1010.11
1011.62 1011.83 1012.06 1012.32 1012.61 1012.93 1013.27 1013.63 1014.00 1014.38 1014.74 1015.08 1015.39 1015.66 1015.89 1016.08 1016.23 1016.34 1016.40 1016.41 1016.38 1016.29 1016.16 1015.96 1015.71 1015.42 1015.10 1014.75 1014.40 1014.06 1013.74 1013.43 1013.16 1012.90 1012.65 1012.40 1012.15 1011.88 1011.59 1011.29 1010.99 1010.70 1010.44
1011.72 1011.95 1012.19 1012.46 1012.77 1013.11 1013.48 1013.86 1014.26 1014.64 1015.01 1015.35 1015.65 1015.91 1016.12 1016.29 1016.42 1016.51 1016.57 1016.58 1016.56 1016.50 1016.38 1016.22 1016.01 1015.75 1015.46 1015.14 1014.81 1014.49 1014.18 1013.89 1013.62 1013.37 1013.12 1012.88 1012.62 1012.35 1012.06 1011.75 1011.43 1011.12 1010.82
1011.82 1012.04 1012.29 1012.58 1012.89 1013.25 1013.63 1014.03 1014.43 1014.83 1015.20 1015.53 1015.82 1016.06 1016.26 1016.41 1016.53 1016.62 1016.67 1016.70 1016.70 1016.67 1016.59 1016.47 1016.30 1016.09 1015.84 1015.56 1015.26 1014.97 1014.68 1014.40 1014.14 1013.90 1013.66 1013.41 1013.16 1012.88 1012.58 1012.26 1011.92 1011.58 1011.25
1011.87 1012.10 1012.36 1012.64 1012.96 1013.32 1013.71 1014.11 1014.51 1014.91 1015.27 1015.60 1015.88 1016.11 1016.29 1016.44 1016.56 1016.65 1016.72 1016.77 1016.79 1016.80 1016.76 1016.69 1016.57 1016.41 1016.20 1015.97 1015.72 1015.46 1015.20 1014.94 1014.70 1014.47 1014.24 1014.00 1013.74 1013.46 1013.16 1012.82 1012.47 1012.10 1011.74
1011.85 1012.09 1012.36 1012.64 1012.96 1013.32 1013.70 1014.10 1014.49 1014.88 1015.23 1015.55 1015.82 1016.04 1016.22 1016.37 1016.49 1016.59 1016.68 1016.76 1016.82 1016.86 1016.87 1016.85 1016.78 1016.67 1016.52 1016.33 1016.13 1015.91 1015.69 1015.47 1015.25 1015.04 1014.83 1014.60 1014.35 1014.07 1013.76 1013.42 1013.05 1012.66 1012.27
1011.73 1012.00 1012.27 1012.56 1012.88 1013.23 1013.60 1013.99 1014.37 1014.73 1015.07 1015.38 1015.64 1015.86 1016.04 1016.20 1016.33 1016.46 1016.57 1016.68 1016.77 1016.85 1016.90 1016.92 1016.90 1016.83 1016.73 1016.60 1016.44 1016.27 1016.10 1015.93 1015.75 1015.57 1015.39 1015.18 1014.95 1014.68 1014.37 1014.02 1013.64 1013.23 1012.82
1011.49 1011.79 1012.09 1012.39 1012.72 1013.06 1013.42 1013.78 1014.15 1014.49 1014.82 1015.11 1015.36 1015.58 1015.77 1015.94 1016.10 1016.24 1016.39 1016.52 1016.64 1016.75 1016.83 1016.88 1016.90 1016.88 1016.83 1016.74 1016.64 1016.53 1016.41 1016.28 1016.16 1016.03 1015.88 1015.71 1015.50 1015.25 1014.95 1014.60 1014.22 1013.80 1013.38
1011.12 1011.47 1011.80 1012.13 1012.46 1012.80 1013.15 1013.50 1013.84 1014.17 1014.48 1014.76 1015.01 1015.23 1015.44 1015.62 1015.80 1015.97 1016.13 1016.29 1016.43 1016.56 1016.67 1016.75 1016.79 1016.81 1016.80 1016.76 1016.71 1016.65 1016.59 1016.53 1016.46 1016.38 1016.29 1016.15 1015.98 1015.75 1015.47 1015.14 1014.76 1014.35 1013.91
1010.62 1011.03 1011.41 1011.77 1012.12 1012.47 1012.81 1013.14 1013.46 1013.78 1014.07 1014.34 1014.60 1014.83 1015.05 1015.26 1015.46 1015.65 1015.83 1016.00 1016.17 1016.31 1016.43 1016.52 1016.59 1016.64 1016.66 1016.67 1016.67 1016.67 1016.67 1016.67 1016.67 1016.64 1016.60 1016.51 1016.38 1016.18 1015.93 1015.62 1015.25 1014.85 1014.42
1010.01 1010.48 1010.92 1011.32 1011.69 1012.05 1012.39 1012.71 1013.02 1013.32 1013.61 1013.88 1014.14 1014.39 1014.62 1014.85 1015.07 1015.28 1015.48 1015.67 1015.84 1015.99 1016.12 1016.23 1016.32 1016.39 1016.45 1016.50 1016.55 1016.61 1016.67 1016.73 1016.78 1016.81 1016.82 1016.78 1016.68 1016.53 1016.30 1016.02 1015.67 1015.28 1014.86
1009.29 1009.83 1010.32 1010.77 1011.17 1011.54 1011.89 1012.21 1012.52 1012.81 1013.09 1013.37 1013.64 1013.89 1014.15 1014.39 1014.63 1014.86 1015.08 1015.28 1015.46 1015.62 1015.76 1015.88 1015.98 1016.08 1016.17 1016.26 1016.36 1016.47 1016.59 1016.71 1016.81 1016.90 1016.95 1016.95 1016.90 1016.77 1016.58 1016.32 1016.00 1015.63 1015.24
1008.48 1009.08 1009.63 1010.11 1010.55 1010.94 1011.30 1011.63 1011.93 1012.23 1012.51 1012.79 1013.07 1013.34 1013.61 1013.88 1014.13 1014.38 1014.60 1014.81 1015.00 1015.17 1015.32 1015.46 1015.58 1015.71 1015.84 1015.97 1016.12 1016.29 1016.46 1016.63 1016.78 1016.91 1017.00 1017.04 1017.01 1016.91 1016.75 1016.51 1016.22 1015.88 1015.52
1007.58 1008.24 1008.82 1009.35 1009.82 1010.23 1010.61 1010.94 1011.26 1011.56 1011.85 1012.14 1012.42 1012.71 1012.99 1013.26 1013.53 1013.79 1014.03 1014.25 1014.44 1014.63 1014.79 1014.95 1015.11 1015.27 1015.44 1015.63 1015.83 1016.04 1016.27 1016.48 1016.68 1016.85 1016.97 1017.03 1017.03 1016.95 1016.81 1016.60 1016.33 1016.03 1015.69
1006.60 1007.29 1007.91 1008.47 1008.97 1009.41 1009.80 1010.15 1010.48 1010.79 1011.09 1011.38 1011.67 1011.97 1012.25 1012.54 1012.81 1013.07 1013.32 1013.55 1013.76 1013.96 1014.15 1014.34 1014.53 1014.74 1014.96 1015.20 1015.46 1015.74 1016.01 1016.28 1016.52 1016.72 1016.87 1016.95 1016.96 1016.91 1016.78 1016.59 1016.35 1016.07 1015.77
1005.53 1006.23 1006.88 1007.46 1007.99 1008.45 1008.87 1009.24 1009.59 1009.91 1010.22 1010.52 1010.81 1011.11 1011.40 1011.68 1011.96 1012.22 1012.48 1012.71 1012.94 1013.17 1013.39 1013.62 1013.86 1014.12 1014.40 1014.71 1015.03 1015.36 1015.69 1016.01 1016.29 1016.53 1016.70 1016.81 1016.84 1016.79 1016.68 1016.51 1016.29 1016.03 1015.76
1004.36 1005.06 1005.72 1006.33 1006.88 1007.37 1007.81 1008.21 1008.58 1008.92 1009.24 1009.55 1009.85 1010.14 1010.43 1010.71 1010.98 1011.25 1011.50 1011.76 1012.00 1012.26 1012.52 1012.79 1013.09 1013.42 1013.77 1014.14 1014.53 1014.93 1015.32 1015.69 1016.02 1016.29 1016.50 1016.63 1016.68 1016.65 1016.55 1016.40 1016.19 1015.96 1015.71
Thickness
5660 5659 5658 5657 5658 5659 5660 5661 5661 5661 5663 5663 5661 5660 5661 5663 5663 5662 5660 5660 5660 5660 5661 5662 5659 5657 5654 5652 5652 5652 5653 5653 5653 5658 5662 5667 5670 5673 5676 5677 5678 5678 5679
5650 5650 5650 5650 5651 5651 5653 5655 5656 5656 5655 5654 5652 5652 5653 5655 5655 5654 5651 5651 5651 5650 5651 5652 5651 5650 5648 5647 5645 5644 5645 5646 5647 5650 5655 5659 5663 5667 5669 5670 5671 5672 5673
5640 5641 5642 5643 5644 5645 5647 5648 5649 5647 5645 5644 5643 5643 5643 5644 5644 5643 5642 5641 5641 5639 5639 5639 5639 5640 5641 5641 5641 5640 5640 5642 5642 5644 5647 5651 5655 5659 5661 5663 5665 5666 5668
5630 5633 5635 5636 5638 5638 5639 5639 5639 5638 5635 5634 5633 5632 5632 5632 5632 5632 5632 5630 5628 5626 5625 5626 5626 5628 5630 5632 5633 5635 5636 5637 5638 5639 5641 5644 5647 5651 5653 5655 5658 5660 5663
5622 5625 5628 5631 5631 5631 5630 5629 5629 5628 5626 5624 5622 5621 5620 5620 5621 5621 5619 5617 5615 5613 5613 5614 5616 5618 5620 5622 5625 5627 5629 5630 5631 5632 5634 5637 5640 5642 5645 5650 5652 5655 5657
5615 5618 5621 5624 5625 5624 5622 5620 5618 5616 5615 5613 5611 5609 5608 5608 5609 5609 5607 5604 5601 5600 5601 5602 5604 5606 5608 5611 5614 5617 5618 5619 5620 5622 5623 5625 5628 5632 5637 5642 5647 5649 5650
5609 5611 5614 5616 5616 5615 5614 5610 5606 5604 5604 5602 5600 5598 5597 5598 5599 5598 5595 5591 5589 5588 5587 5589 5592 5594 5597 5600 5603 5606 5608 5608 5610 5611 5613 5614 5616 5619 5625 5633 5638 5641 5642
5604 5605 5606 5606 5605 5604 5602 5598 5595 5593 5592 5590 5588 5587 5588 5589 5590 5587 5584 5581 5580 5578 5577 5577 5579 5582 5586 5589 5592 5594 5596 5597 5599 5601 5602 5603 5605 5608 5613 5618 5623 5628 5631
5600 5599 5598 5597 5595 5594 5591 5589 5587 5584 5581 5580 5578 5578 5579 5579 5578 5576 5574 5572 5571 5568 5567 5566 5569 5572 5574 5579 5582 5582 5583 5584 5586 5588 5590 5592 5594 5598 5602 5608 5612 5615 5616
5596 5594 5591 5589 5587 5584 5583 5582 5580 5577 5574 5572 5570 5569 5570 5567 5566 5566 5564 5563 5560 5559 5558 5558 5559 5560 5562 5565 5567 5568 5568 5568 5572 5576 5578 5580 5582 5585 5588 5590 5595 5600 5603
5592 5588 5584 5581 5579 5577 5576 5576 5574 5571 5567 5565 5562 5559 5558 5556 5556 5556 5556 5554 5552 5550 5550 5550 5550 5552 5553 5554 5555 5555 5554 5557 5560 5563 5563 5565 5567 5570 5573 5576 5578 5582 5587
5587 5583 5579 5576 5576 5574 5572 5570 5568 5565 5561 5557 5554 5551 5549 5549 5549 5548 5547 5546 5544 5543 5541 5541 5541 5543 5543 5543 5543 5543 5544 5547 5549 5551 5551 5551 5553 5555 5557 5560 5564 5567 5570
5584 5579 5576 5573 5572 5571 5568 5565 5562 5559 5556 5553 5550 5547 5545 5544 5543 5542 5541 5540 5539 5537 5535 5534 5533 5534 5534 5533 5531 5531 5532 5532 5533 5534 5535 5536 5537 5540 5544 5548 5552 5554 5557
5581 5576 5572 5570 5568 5567 5565 5563 5560 5557 5554 5550 5547 5545 5543 5542 5540 5538 5536 5534 5533 5531 5529 5528 5526 5525 5523 5521 5519 5518 5518 5517 5516 5516 5517 5519 5523 5527 5530 5532 5536 5540 5544
5578 5573 5570 5567 5564 5563 5561 5560 5559 5558 5556 5552 5548 5545 5543 5540 5537 5534 5531 5528 5526 5523 5521 5519 5516 5514 5511 5509 5507 5506 5505 5505 5504 5503 5504 5505 5508 5511 5513 5516 5519 5524 5528
5576 5571 5568 5565 5562 5560 5558 5555 5553 5554 5552 5550 5547 5544 5541 5538 5534 5530 5526 5523 5520 5516 5512 5510 5506 5503 5501 5499 5498 5495 5493 5492 5491 5491 5491 5492 5494 5496 5498 5501 5503 5506 5510
5575 5570 5566 5564 5561 5558 5556 5555 5550 5546 5546 5545 5543 5540 5538 5534 5530 5526 5522 5519 5515 5511 5507 5504 5501 5498 5494 5491 5488 5486 5483 5480 5478 5478 5478 5478 5479 5481 5483 5485 5487 5489 5493
5574 5571 5566 5563 5560 5557 5554 5552 5551 5548 5544 5541 5539 5537 5534 5531 5527 5523 5519 5515 5511 5506 5504 5500 5496 5492 5488 5484 5481 5478 5475 5472 5470 5468 5467 5466 5466 5467 5467 5468 5469 5471 5475
5572 5568 5565 5561 5557 5555 5552 5549 5547 5544 5543 5541 5538 5535 5532 5528 5524 5521 5517 5513 5510 5506 5500 5496 5492 5487 5482 5478 5474 5470 5467 5464 5461 5458 5456 5454 5453 5453 5453 5452 5452 5452 5455
5569 5567 5562 5558 5554 5551 5549 5547 5544 5542 5539 5538 5537 5535 5530 5526 5524 5520 5515 5511 5507 5504 5499 5494 5489 5483 5477 5472 5468 5463 5459 5455 5452 5449 5446 5444 5442 5441 5440 5439 5438 5438 5440
5566 5564 5560 5556 5553 5550 5548 5546 5544 5541 5538 5536 5536 5534 5529 5526 5525 5521 5516 5511 5507 5503 5498 5493 5487 5481 5475 5469 5463 5457 5452 5449 5445 5441 5438 5435 5433 5431 5429 5428 5427 5427 5428
5565 5561 5557 5554 5552 5548 5545 5543 5541 5539 5537 5536 5534 5531 5525 5524 5523 5520 5517 5513 5508 5503 5498 5492 5487 5481 5475 5468 5461 5454 5448 5443 5439 5435 5431 5427 5424 5422 5420 5419 5418 5417 5417
5565 5560 5555 5552 5551 5548 5544 5541 5538 5536 5535 5534 5533 5530 5526 5524 5523 5521 5518 5515 5510 5504 5498 5492 5486 5481 5474 5467 5460 5453 5446 5441 5435 5429 5424 5420 5417 5414 5411 5408 5407 5406 5407
5566 5561 5557 5553 5550 5548 5545 5542 5539 5536 5535 5533 5531 5530 5528 5526 5524 5522 5520 5516 5511 5505 5499 5493 5487 5481 5474 5466 5459 5451 5443 5436 5429 5423 5417 5413 5409 5405 5402 5399 5398 5397 5397
5568 5564 5559 5555 5552 5550 5547 5543 5541 5538 5536 5534 5532 5530 5529 5527 5525 5523 5519 5515 5510 5505 5499 5494 5488 5481 5473 5465 5457 5448 5440 5431 5424 5417 5411 5406 5402 5397 5394 5391 5389 5388 5388
5570 5566 5562 5558 5555 5551 5548 5545 5543 5540 5538 5536 5534 5532 5530 5528 5526 5523 5519 5514 5509 5504 5499 5494 5487 5480 5471 5463 5453 5444 5435 5426 5418 5411 5405 5400 5395 5391 5386 5383 5381 5379 5379